CEST,Max TemperatureF,Mean TemperatureF,Min TemperatureF,Max Dew PointF,MeanDew PointF,Min DewpointF,Max Humidity, Mean Humidity, Min Humidity, Max Sea Level PressureIn, Mean Sea Level PressureIn, Min Sea Level PressureIn, Max VisibilityMiles, Mean VisibilityMiles, Min VisibilityMiles, Max Wind SpeedMPH, Mean Wind SpeedMPH, Max Gust SpeedMPH,PrecipitationIn, CloudCover, Events, WindDirDegrees
2013-4-1,45,35,25,27,24,18,93,63,28,29.95,29.90,29.83,19,7,6,18,9,,0.00,4,,52
2013-4-2,48,38,27,27,22,16,80,54,18,30.01,29.93,29.89,19,7,6,25,13,31,0.00,,,50
2013-4-3,45,38,30,27,23,21,75,54,25,30.05,30.01,29.95,19,7,6,21,13,,0.00,7,,72
2013-4-4,41,37,33,29,26,23,81,64,49,29.99,29.91,29.86,14,7,4,20,12,,0.00,7,Snow,57
2013-4-5,46,40,35,30,28,26,75,62,36,30.02,29.91,29.86,19,7,6,21,13,,0.00,7,,42
2013-4-6,48,40,30,32,29,25,93,67,32,30.26,30.14,30.01,18,7,6,16,9,,0.00,6,,22
2013-4-7,48,36,25,37,29,23,100,77,36,30.27,30.16,29.98,19,5,0,10,3,,0.00,6,Fog-Snow,34
2013-4-8,51,42,32,30,27,25,81,57,26,29.98,29.75,29.62,18,7,6,17,9,,0.00,8,,76
2013-4-9,50,44,37,43,38,27,93,80,49,29.60,29.51,29.47,13,6,2,12,8,,0.03,7,Rain,104
2013-4-10,46,40,35,45,40,34,100,92,77,29.75,29.63,29.50,5,2,0,12,5,,0.00,7,Rain,256
2013-4-11,48,40,33,48,43,37,100,94,82,29.65,29.47,29.39,6,2,1,23,11,33,0.04,7,Rain,217
2013-4-12,56,48,39,50,44,39,100,90,70,29.62,29.51,29.47,14,5,0,24,10,36,0.24,6,Fog-Rain,210
2013-4-13,58,49,40,50,44,41,100,85,45,30.05,29.93,29.65,9,4,0,20,12,31,0.01,6,Fog-Rain,220
2013-4-14,72,61,50,54,51,48,100,72,39,30.10,30.04,29.98,19,6,4,18,13,23,0.01,7,Rain,176
2013-4-15,61,54,46,53,48,43,94,78,56,30.14,30.07,29.98,13,7,6,15,9,,0.04,4,Rain,225
2013-4-16,60,52,43,52,47,41,100,82,62,30.12,30.05,30.01,15,7,4,20,10,31,0.00,6,,211
2013-4-17,67,56,46,55,50,46,100,74,41,30.15,30.05,29.83,14,6,3,18,11,,0.00,6,,193
2013-4-18,57,52,48,50,43,37,82,66,44,30.04,29.94,29.77,12,7,5,36,21,53,0.00,2,,230
2013-4-19,52,46,39,45,41,37,93,81,68,30.45,30.22,30.04,11,6,6,20,14,,0.01,5,Rain,287
2013-4-20,52,42,32,37,35,32,100,72,39,30.53,30.46,30.36,19,7,4,18,8,28,0.00,4,,27
2013-4-21,55,43,31,41,36,32,100,74,41,30.36,30.16,30.04,19,7,6,10,5,,0.00,8,,336
2013-4-22,58,46,34,46,40,32,100,77,51,30.05,30.02,30.01,12,6,3,20,7,,0.00,4,,222
2013-4-23,58,51,44,52,47,39,100,85,57,30.24,30.09,29.98,14,6,1,20,13,,0.02,8,Rain,248
2013-4-24,64,54,44,52,48,43,100,82,57,30.27,30.24,30.21,13,6,3,18,7,,0.00,6,,221
2013-4-25,70,59,48,55,51,47,100,78,51,30.27,30.17,30.01,17,6,4,14,6,,0.00,8,Rain,222
2013-4-26,48,42,37,48,44,37,100,90,67,29.98,29.89,29.86,19,6,1,15,8,,0.24,5,Rain,331
2013-4-27,51,42,34,39,37,36,100,80,53,30.04,29.91,29.86,19,7,0,16,6,,0.00,3,Fog,350
2013-4-28,53,41,29,39,35,30,100,75,41,30.07,30.02,29.95,19,7,0,10,4,,0.00,5,Fog,263
2013-4-29,53,46,38,45,38,32,100,70,46,30.13,29.99,29.89,18,7,4,21,13,32,0.04,6,Rain,240
2013-4-30,55,46,38,43,40,36,100,76,46,30.29,30.21,30.12,19,7,4,16,7,,0.00,2,,353